FLOCK JC

Last updated on Tue May 24 2016 09:36:31 GMT+0000 (Coordinated Universal Time)

1 41482U 98067JC 16145.11462720 .00009593 00000-0 14490-3 0 9996 2 41482 51.6418 178.0875 0001671 239.3496 223.9617 15.55448268 1035

Satellite not in orbit

FLOCK JC